Wetterdaten: Jahr 2019
Datum Temp. A. Feuchte A. Luftdruck Regen Wind Richtung Sonnenschein UV Solar Windben
01.01.2019 5,5 C 87 % 1025,2 hPa 3,0 l/m 16,6 km/h W-SW 0,42 h 0,5 UV-I 30 W/m 26,6 km/h
02.01.2019 2,2 C 70 % 1034,1 hPa 0,0 l/m 7,0 km/h W 4,58 h 0,8 UV-I 124 W/m 12,2 km/h
03.01.2019 1,8 C 94 % 1037,2 hPa 2,6 l/m 3,5 km/h W 0,00 h 0,5 UV-I 35 W/m 6,5 km/h
04.01.2019 3,2 C 96 % 1032,7 hPa 2,0 l/m 13,1 km/h W-SW 0,00 h 0,0 UV-I 22 W/m 21,4 km/h
05.01.2019 6,6 C 97 % 1026,5 hPa 13,2 l/m 10,5 km/h W 0,00 h 0,0 UV-I 19 W/m 17,0 km/h
06.01.2019 6,1 C 97 % 1030,6 hPa 2,6 l/m 9,2 km/h W 0,00 h 0,0 UV-I 28 W/m 17,4 km/h
07.01.2019 5,7 C 95 % 1025,3 hPa 2,6 l/m 10,1 km/h W-SW 0,00 h 0,5 UV-I 40 W/m 19,4 km/h
08.01.2019 5,1 C 88 % 1010,0 hPa 5,8 l/m 20,5 km/h W-SW 0,00 h 0,0 UV-I 22 W/m 31,1 km/h
09.01.2019 2,3 C 78 % 1017,5 hPa 0,0 l/m 8,3 km/h W-NW 0,00 h 0,6 UV-I 38 W/m 15,4 km/h
10.01.2019 0,7 C 89 % 1025,8 hPa 0,2 l/m 4,9 km/h W 0,00 h 0,6 UV-I 49 W/m 8,1 km/h
11.01.2019 4,5 C 96 % 1021,1 hPa 1,8 l/m 12,3 km/h W-SW 0,00 h 0,0 UV-I 16 W/m 19,8 km/h
12.01.2019 5,6 C 94 % 1013,3 hPa 3,0 l/m 16,1 km/h W-SW 0,00 h 0,0 UV-I 18 W/m 28,2 km/h
13.01.2019 7,0 C 92 % 1000,6 hPa 12,8 l/m 16,7 km/h W-SW 0,00 h 0,0 UV-I 19 W/m 35,9 km/h
14.01.2019 3,5 C 82 % 1013,0 hPa 0,4 l/m 15,8 km/h W 0,25 h 0,6 UV-I 50 W/m 28,7 km/h
15.01.2019 5,3 C 87 % 1015,3 hPa 0,0 l/m 16,5 km/h W-SW 0,00 h 0,5 UV-I 39 W/m 29,1 km/h
16.01.2019 5,8 C 80 % 1006,1 hPa 0,0 l/m 9,5 km/h SW 0,00 h 0,6 UV-I 42 W/m 18,2 km/h
17.01.2019 2,2 C 93 % 1004,0 hPa 11,0 l/m 12,1 km/h W-SW 0,50 h 0,7 UV-I 51 W/m 21,3 km/h
18.01.2019 -0,1 C 85 % 1019,8 hPa 0,0 l/m 4,6 km/h W-SW 4,92 h 1,0 UV-I 152 W/m 9,7 km/h
19.01.2019 -0,8 C 72 % 1017,2 hPa 0,0 l/m 8,1 km/h O 6,17 h 1,0 UV-I 165 W/m 15,0 km/h
20.01.2019 -2,3 C 73 % 1019,3 hPa 0,0 l/m 2,7 km/h O-NO 6,17 h 1,0 UV-I 169 W/m 6,5 km/h
21.01.2019 -3,2 C 81 % 1020,8 hPa 0,0 l/m 3,7 km/h O 6,58 h 0,9 UV-I 163 W/m 6,5 km/h
22.01.2019 -3,3 C 78 % 1006,4 hPa 0,0 l/m 4,0 km/h O-SO 6,08 h 1,0 UV-I 157 W/m 9,7 km/h
23.01.2019 -4,6 C 84 % 1002,7 hPa 0,0 l/m 4,9 km/h O-NO 0,17 h 0,6 UV-I 70 W/m 8,5 km/h
24.01.2019 -4,5 C 82 % 1012,8 hPa 0,0 l/m 3,3 km/h O 0,00 h 0,7 UV-I 70 W/m 6,9 km/h
25.01.2019 -1,2 C 88 % 1012,4 hPa 3,8 l/m 5,8 km/h S-SO 0,08 h 0,7 UV-I 70 W/m 11,8 km/h
26.01.2019 5,7 C 91 % 1001,8 hPa 17,2 l/m 11,8 km/h SW 0,00 h 0,0 UV-I 21 W/m 21,9 km/h
27.01.2019 5,1 C 87 % 986,7 hPa 2,2 l/m 10,2 km/h SW 0,08 h 0,6 UV-I 57 W/m 20,2 km/h
28.01.2019 2,4 C 90 % 994,9 hPa 6,6 l/m 12,9 km/h W-SW 0,00 h 0,0 UV-I 26 W/m 21,8 km/h
29.01.2019 1,5 C 86 % 1003,0 hPa 0,0 l/m 5,9 km/h W-SW 1,42 h 0,8 UV-I 98 W/m 10,6 km/h
30.01.2019 0,2 C 87 % 994,3 hPa 0,0 l/m 8,9 km/h O 0,00 h 0,5 UV-I 51 W/m 17,4 km/h
31.01.2019 1,0 C 80 % 996,4 hPa 0,0 l/m 6,8 km/h O 1,33 h 0,9 UV-I 93 W/m 13,0 km/h
01.02.2019 2,7 C 82 % 991,0 hPa 0,0 l/m 6,9 km/h O 4,42 h 1,1 UV-I 160 W/m 13,4 km/h
02.02.2019 1,7 C 93 % 1000,6 hPa 1,4 l/m 2,6 km/h NO 0,00 h 0,6 UV-I 50 W/m 5,7 km/h
03.02.2019 1,8 C 87 % 1020,6 hPa 0,0 l/m 7,7 km/h W 0,17 h 0,8 UV-I 66 W/m 13,0 km/h
04.02.2019 3,5 C 68 % 1025,4 hPa 0,0 l/m 6,4 km/h S-SW 4,25 h 1,0 UV-I 147 W/m 15,0 km/h
05.02.2019 3,4 C 88 % 1027,2 hPa 0,2 l/m 5,3 km/h W-SW 0,00 h 0,5 UV-I 39 W/m 8,9 km/h
06.02.2019 5,8 C 72 % 1020,6 hPa 0,0 l/m 6,4 km/h O 1,25 h 1,0 UV-I 118 W/m 12,6 km/h
07.02.2019 7,1 C 71 % 1010,2 hPa 0,0 l/m 12,3 km/h SW 2,17 h 1,1 UV-I 117 W/m 22,6 km/h
08.02.2019 8,1 C 75 % 1008,4 hPa 0,0 l/m 9,6 km/h S-SW 0,08 h 0,8 UV-I 84 W/m 20,6 km/h
09.02.2019 8,7 C 68 % 1005,3 hPa 0,6 l/m 15,0 km/h SW 2,25 h 1,1 UV-I 132 W/m 29,9 km/h
10.02.2019 5,2 C 89 % 993,7 hPa 13,8 l/m 12,5 km/h SW 0,08 h 0,5 UV-I 44 W/m 23,8 km/h
11.02.2019 4,5 C 82 % 1019,6 hPa 5,6 l/m 12,5 km/h W-SW 2,83 h 1,2 UV-I 135 W/m 24,4 km/h
12.02.2019 4,1 C 85 % 1033,0 hPa 0,0 l/m 8,4 km/h W-SW 0,08 h 0,8 UV-I 81 W/m 15,4 km/h
13.02.2019 6,2 C 79 % 1035,3 hPa 0,0 l/m 4,3 km/h W-SW 2,92 h 0,9 UV-I 123 W/m 10,1 km/h
14.02.2019 7,0 C 62 % 1035,3 hPa 0,0 l/m 4,1 km/h O-SO 5,92 h 1,4 UV-I 213 W/m 7,8 km/h
15.02.2019 10,7 C 49 % 1030,3 hPa 0,0 l/m 4,2 km/h O 7,92 h 1,5 UV-I 251 W/m 8,5 km/h
16.02.2019 9,7 C 58 % 1025,2 hPa 0,0 l/m 5,0 km/h O-SO 8,17 h 1,6 UV-I 254 W/m 8,5 km/h
17.02.2019 9,3 C 61 % 1021,3 hPa 0,0 l/m 3,6 km/h O 8,67 h 1,5 UV-I 237 W/m 7,7 km/h
18.02.2019 10,7 C 53 % 1016,6 hPa 0,0 l/m 6,6 km/h O-SO 8,08 h 1,5 UV-I 256 W/m 11,0 km/h
19.02.2019 8,2 C 72 % 1018,3 hPa 0,0 l/m 9,3 km/h W-SW 1,00 h 1,2 UV-I 138 W/m 19,4 km/h
20.02.2019 8,3 C 68 % 1022,9 hPa 0,0 l/m 5,5 km/h SW 3,42 h 1,2 UV-I 163 W/m 11,4 km/h
21.02.2019 9,3 C 81 % 1026,7 hPa 0,0 l/m 7,9 km/h W-SW 1,08 h 1,0 UV-I 124 W/m 15,8 km/h
22.02.2019 7,7 C 88 % 1037,1 hPa 0,0 l/m 8,2 km/h W 0,00 h 0,9 UV-I 69 W/m 15,0 km/h
Min-Datum 23.01.19 14.02.19 27.01.19 22 Tage 02.01.19 - - - - 02.01.19
Min-Zeit 21:00 14:15 14:10 - 21:20 - - - - 22:10
Minimum -6,0 C 28 % 983,8 hPa - 0,5 km/h - - - - 0,5 km/h
Max-Datum 15.02.19 05.01.19 22.02.19 26.01.19 08.01.19 - 17.02.19 16.02.19 19.02.19 09.02.19
Max-Zeit 15:10 07:40 23:55 03:40 06:30 - 17:10 12:10 12:45 14:55
Maximum 17,8 C 98 % 1040,6 hPa 17,2 l/m 32,3 km/h
W-SW
- 8,58 h 2,4 UV-I 571 W/m 53,6 km/h
SW
Durchschnitt 4,0 C 81 % 1016,1 hPa #112,4 l/m 8,7 km/h W-SW #103:30 h 0,9 UV-I 94 W/m 16,2 km/h

Durchschnitt Minimum Temp.1,6 C
Durchschnitt Maximum Temp.6,6 C

Jahr Standard-Abweichung:   + 4,01 K
Jahr Normal Wert:    0,00 C
Eistage (Tmax < 0C) :2
Frosttage (Tmin < 0C) :15
Kalte Tage (Tmax < 10C) :42
Sommertage (Tmax >= 25C) :0
Heie Tage (Tmax >= 30C) :0

Regen Tage
> 0,0 l/m22
> 2,0 l/m16
> 20,0 l/m0
Jahr Standard-Abweichung:   + 112,4 l/m
Jahr Normal Wert:    0,0 l/m

VerteilungWindrichtung
Windstille1,5 %
N-NO0,6 %
NO2,9 %
O-NO5,9 %
O8,9 %
O-SO7,8 %
SO4,4 %
S-SO4,0 %
S4,3 %
S-SW5,9 %
SW13,5 %
W-SW19,5 %
W14,7 %
W-NW4,9 %
NW1,9 %
N-NW0,6 %
N0,4 %